When you browse on this site, cookies collect data to enhance your experience and personalize the content and advertising you see.
Visit our Privacy Policy to learn more. By continuing to use the site, you agree to this use of cookies and data.

Meteo pe oră la Dzierawy

Astăzi, 25 Septembrie, Vineri

Timp Temperatura Precipitaţii Vânt Presiune Umiditate
00:00 +18°C° 0 mm 2 m/s 746 mmHg 72%
01:00 +17°C° 0 mm 2 m/s 746 mmHg 73%
02:00 +17°C° 0 mm 2 m/s 745 mmHg 75%
03:00 +17°C° 0 mm 3 m/s 745 mmHg 78%
04:00 +17°C° 0 mm 3 m/s 744 mmHg 80%
05:00 +17°C° 0 mm 4 m/s 744 mmHg 79%
06:00 +17°C° 0 mm 4 m/s 743 mmHg 77%
07:00 +17°C° 0 mm 5 m/s 742 mmHg 76%
08:00 +20°C° 0 mm 6 m/s 742 mmHg 68%
09:00 +22°C° 0 mm 6 m/s 741 mmHg 60%
10:00 +24°C° 0 mm 7 m/s 741 mmHg 52%
11:00 +24°C° 0.1 mm 7 m/s 741 mmHg 51%
12:00 +26°C° 0.1 mm 7 m/s 740 mmHg 49%
13:00 +26°C° 0.1 mm 7 m/s 740 mmHg 48%
14:00 +23°C° 0.8 mm 6 m/s 739 mmHg 60%
15:00 +21°C° 0.8 mm 6 m/s 739 mmHg 72%
16:00 +19°C° 0.8 mm 5 m/s 739 mmHg 83%
17:00 +17°C° 0.7 mm 5 m/s 739 mmHg 85%
18:00 +18°C° 0.7 mm 4 m/s 739 mmHg 87%
19:00 +17°C° 0.7 mm 4 m/s 739 mmHg 89%
20:00 +17°C° 0.1 mm 3 m/s 739 mmHg 90%
21:00 +16°C° 0.1 mm 2 m/s 739 mmHg 90%
22:00 +15°C° 0.1 mm 2 m/s 739 mmHg 91%
23:00 +15°C° 0 mm 2 m/s 739 mmHg 92%

Mâine, 26 Septembrie, Sâmbătă

Timp Temperatura Precipitaţii Vânt Presiune Umiditate
00:00 +14°C° 0 mm 2 m/s 739 mmHg 93%
01:00 +14°C° 0 mm 1 m/s 739 mmHg 95%
02:00 +14°C° 0 mm 2 m/s 738 mmHg 94%
03:00 +13°C° 0 mm 3 m/s 738 mmHg 94%
04:00 +13°C° 0 mm 3 m/s 737 mmHg 94%
05:00 +14°C° 0 mm 4 m/s 737 mmHg 93%
06:00 +14°C° 0 mm 5 m/s 736 mmHg 93%
07:00 +15°C° 0 mm 6 m/s 736 mmHg 93%
08:00 +16°C° 0.2 mm 6 m/s 736 mmHg 88%
09:00 +17°C° 0.2 mm 6 m/s 736 mmHg 84%
10:00 +19°C° 0.2 mm 6 m/s 736 mmHg 79%
11:00 +19°C° 0.3 mm 6 m/s 736 mmHg 80%
12:00 +19°C° 0.3 mm 6 m/s 736 mmHg 81%
13:00 +19°C° 0.3 mm 5 m/s 736 mmHg 82%
14:00 +17°C° 0.3 mm 5 m/s 737 mmHg 79%
15:00 +17°C° 0.3 mm 5 m/s 737 mmHg 76%
16:00 +17°C° 0.3 mm 4 m/s 738 mmHg 73%
17:00 +16°C° 0 mm 3 m/s 738 mmHg 74%
18:00 +16°C° 0 mm 3 m/s 738 mmHg 75%
19:00 +15°C° 0 mm 2 m/s 739 mmHg 76%
20:00 +14°C° 0.1 mm 2 m/s 739 mmHg 77%
21:00 +14°C° 0.1 mm 2 m/s 740 mmHg 77%
22:00 +13°C° 0.1 mm 2 m/s 740 mmHg 78%
23:00 +12°C° 0.1 mm 3 m/s 740 mmHg 76%

Poimâine, 27 Septembrie, Duminică

Timp Temperatura Precipitaţii Vânt Presiune Umiditate
00:00 +11°C° 0.1 mm 3 m/s 741 mmHg 75%
01:00 +11°C° 0.1 mm 4 m/s 741 mmHg 74%
02:00 +10°C° 0.3 mm 3 m/s 741 mmHg 75%
03:00 +10°C° 0.3 mm 3 m/s 741 mmHg 76%
04:00 +10°C° 0.3 mm 3 m/s 741 mmHg 77%
05:00 +10°C° 0.2 mm 3 m/s 741 mmHg 78%
06:00 +10°C° 0.2 mm 3 m/s 741 mmHg 79%
07:00 +9°C° 0.2 mm 3 m/s 742 mmHg 80%
08:00 +10°C° 0.2 mm 3 m/s 742 mmHg 81%
09:00 +10°C° 0.2 mm 4 m/s 742 mmHg 82%
10:00 +10°C° 0.2 mm 4 m/s 742 mmHg 83%
11:00 +9°C° 1.9 mm 5 m/s 742 mmHg 85%
12:00 +9°C° 1.9 mm 6 m/s 742 mmHg 87%
13:00 +9°C° 1.9 mm 6 m/s 741 mmHg 90%
14:00 +9°C° 2 mm 7 m/s 741 mmHg 90%
15:00 +9°C° 2 mm 7 m/s 741 mmHg 91%
16:00 +9°C° 2 mm 7 m/s 741 mmHg 91%
17:00 +9°C° 1.4 mm 7 m/s 742 mmHg 91%
18:00 +9°C° 1.4 mm 7 m/s 742 mmHg 91%
19:00 +9°C° 1.4 mm 7 m/s 742 mmHg 91%
20:00 +9°C° 0.3 mm 7 m/s 742 mmHg 91%
21:00 +9°C° 0.3 mm 7 m/s 743 mmHg 91%
22:00 +9°C° 0.3 mm 7 m/s 743 mmHg 91%
23:00 +10°C° 0.7 mm 7 m/s 743 mmHg 91%

28 Septembrie, Luni

Timp Temperatura Precipitaţii Vânt Presiune Umiditate
00:00 +10°C° 0.7 mm 7 m/s 743 mmHg 91%
01:00 +10°C° 0.7 mm 8 m/s 743 mmHg 92%
02:00 +10°C° 1.1 mm 8 m/s 743 mmHg 92%
03:00 +10°C° 1.1 mm 8 m/s 744 mmHg 92%
04:00 +10°C° 1.1 mm 8 m/s 744 mmHg 92%
05:00 +10°C° 0.9 mm 8 m/s 744 mmHg 91%
06:00 +10°C° 0.9 mm 8 m/s 744 mmHg 91%
07:00 +9°C° 0.9 mm 8 m/s 744 mmHg 91%
08:00 +9°C° 0.6 mm 8 m/s 745 mmHg 89%
09:00 +9°C° 0.6 mm 7 m/s 745 mmHg 88%
10:00 +9°C° 0.6 mm 7 m/s 745 mmHg 87%
11:00 +10°C° 0.1 mm 7 m/s 746 mmHg 84%
12:00 +10°C° 0.1 mm 7 m/s 746 mmHg 81%
13:00 +10°C° 0.1 mm 6 m/s 746 mmHg 78%
14:00 +10°C° 0.1 mm 6 m/s 746 mmHg 76%
15:00 +12°C° 0.1 mm 5 m/s 747 mmHg 75%
16:00 +12°C° 0.1 mm 5 m/s 747 mmHg 74%
17:00 +12°C° 0 mm 4 m/s 747 mmHg 74%
18:00 +12°C° 0 mm 3 m/s 747 mmHg 74%
19:00 +12°C° 0 mm 3 m/s 748 mmHg 74%
20:00 +11°C° 0 mm 3 m/s 748 mmHg 75%
21:00 +11°C° 0 mm 3 m/s 748 mmHg 76%
22:00 +10°C° 0 mm 4 m/s 748 mmHg 77%
23:00 +10°C° 0 mm 3 m/s 748 mmHg 79%

29 Septembrie, Marţi

Timp Temperatura Precipitaţii Vânt Presiune Umiditate
00:00 +10°C° 0 mm 3 m/s 748 mmHg 81%
01:00 +9°C° 0 mm 3 m/s 748 mmHg 83%
02:00 +9°C° 0 mm 3 m/s 748 mmHg 84%
03:00 +9°C° 0 mm 3 m/s 748 mmHg 85%
04:00 +9°C° 0 mm 3 m/s 748 mmHg 86%
05:00 +9°C° 0 mm 3 m/s 748 mmHg 85%
06:00 +9°C° 0 mm 3 m/s 748 mmHg 85%
07:00 +9°C° 0 mm 3 m/s 748 mmHg 84%
08:00 +11°C° 0 mm 3 m/s 748 mmHg 80%
09:00 +13°C° 0 mm 2 m/s 748 mmHg 76%
10:00 +14°C° 0 mm 2 m/s 748 mmHg 71%
11:00 +14°C° 0 mm 2 m/s 749 mmHg 71%
12:00 +15°C° 0 mm 2 m/s 749 mmHg 71%
13:00 +15°C° 0 mm 2 m/s 749 mmHg 70%
14:00 +15°C° 0 mm 2 m/s 749 mmHg 72%
15:00 +15°C° 0 mm 1 m/s 749 mmHg 74%
16:00 +15°C° 0 mm 1 m/s 749 mmHg 76%
17:00 +14°C° 0 mm 1 m/s 749 mmHg 79%
18:00 +13°C° 0 mm 1 m/s 750 mmHg 82%
19:00 +12°C° 0 mm 1 m/s 750 mmHg 85%
20:00 +12°C° 0 mm 1 m/s 750 mmHg 85%
21:00 +12°C° 0 mm 2 m/s 750 mmHg 86%
22:00 +10°C° 0 mm 2 m/s 751 mmHg 86%
23:00 +10°C° 0 mm 2 m/s 751 mmHg 87%

30 Septembrie, Miercuri

Timp Temperatura Precipitaţii Vânt Presiune Umiditate
00:00 +10°C° 0 mm 2 m/s 751 mmHg 87%
01:00 +10°C° 0 mm 2 m/s 751 mmHg 88%
02:00 +10°C° 0 mm 3 m/s 751 mmHg 89%
03:00 +10°C° 0 mm 3 m/s 751 mmHg 89%
04:00 +10°C° 0 mm 3 m/s 751 mmHg 90%
05:00 +10°C° 0 mm 3 m/s 751 mmHg 88%
06:00 +10°C° 0 mm 3 m/s 751 mmHg 87%
07:00 +10°C° 0 mm 3 m/s 751 mmHg 86%
08:00 +11°C° 0 mm 4 m/s 751 mmHg 84%
09:00 +12°C° 0 mm 4 m/s 751 mmHg 81%
10:00 +13°C° 0 mm 4 m/s 751 mmHg 79%
11:00 +13°C° 0 mm 4 m/s 750 mmHg 80%
12:00 +14°C° 0 mm 4 m/s 750 mmHg 82%
13:00 +14°C° 0 mm 5 m/s 750 mmHg 83%
14:00 +15°C° 0 mm 5 m/s 750 mmHg 82%
15:00 +15°C° 0 mm 5 m/s 750 mmHg 82%
16:00 +15°C° 0 mm 5 m/s 749 mmHg 81%
17:00 +15°C° 0 mm 5 m/s 749 mmHg 84%
18:00 +14°C° 0 mm 5 m/s 749 mmHg 88%
19:00 +13°C° 0 mm 5 m/s 749 mmHg 91%
20:00 +13°C° 0 mm 4 m/s 749 mmHg 92%
21:00 +13°C° 0 mm 4 m/s 749 mmHg 93%
22:00 +12°C° 0 mm 3 m/s 749 mmHg 94%
23:00 +12°C° 0 mm 3 m/s 749 mmHg 94%
Arată mai mult